sat.trackr.live / text

‹ back to catalog

STARLINK-36929

NORAD 68067 · 2026-041AD

PAYLOAD ACTIVE UNKNOWN

§ Identity

Operator
Country
US
Launch date
2026-03-02
Launch site
AFETR
Launch vehicle
Mass (kg)
RCS (m²)

Purposes: comms

External: N2YO · Heavens-Above · Gunter

§ Orbital elements

Epoch: 2026-05-25T03:03:15.096384Z

Period
93.85 min
Inclination
53.1599°
Eccentricity
0.0000965
Mean motion
15.34399648 rev/d
Perigee alt
462.0 km
Apogee alt
463.4 km
Semi-major
6,840.8 km
B*
2.9481e-4
RAAN
53.2503°
Arg perigee
99.5984°
Mean anomaly
260.5127°
Rev number
1,311

§ Raw data

STARLINK-369291 68067U 26041AD  26145.12725806  .00009597  00000+0  29481-3 0  99952 68067  53.1599  53.2503 0000965  99.5984 260.5127 15.34399648 13114

JSON: /api/v1/satellites/68067 · /tle

For live sub-satellite position, see the globe view (requires WebGL).

§ Visibility from observer

Set your observer location to see the next 7 days of passes ≥ 10°. The values pass through the URL so the page stays shareable.

No JS? Fill the form by hand. The geolocation button needs JavaScript.